User: anonymous   Login
Location: Betpouey
(42.8833°N, 0.0333°E)
Time: 15:23:31
(UTC+00:00)
Language:

Meteor 1-14 Rocket - Orbit

View from above orbital plane
View from above orbital plane
View from above satellite
View from above satellite

Ground track
Ground track

The orbit data is extracted from the following two-line orbital elements,

1 06393U 73015B   21062.80228106  .00000153  00000-0  85899-4 0  9997
2 06393  81.2528  81.6620 0059511  66.4890 294.2516 14.05031772457089
Epoch (UTC): 03 March 2021 19:15:17
Eccentricity: 0.0059511
inclination: 81.2528°
perigee height: 833 km
apogee height: 919 km
right ascension of ascending node: 81.6620°
argument of perigee: 66.4890°
revolutions per day: 14.05031772
mean anomaly at epoch: 294.2516°
orbit number at epoch: 45708

The dashed part of the orbit path shows where the satellite is in the earth's shadow,  

DLR